Time,TemperatureF,DewpointF,PressureIn,WindDirection,WindDirectionDegrees,WindSpeedMPH,WindSpeedGustMPH,Humidity,HourlyPrecipIn,Conditions,Clouds,dailyrainin,SolarRadiationWatts/m^2,SoftwareType,DateUTC
2013-02-03 00:01:00,18.1,14.6,30.07,WNW,302,0.0,0.0,86,0.00,CLR,,0.00,0.0,WeatherDisplay:10.37,2013-02-03 06:01:00,
2013-02-03 00:06:00,18.1,14.6,30.06,WNW,302,0.0,0.0,86,0.00,CLR,,0.00,0.0,WeatherDisplay:10.37,2013-02-03 06:06:00,
2013-02-03 00:11:00,18.1,14.9,30.06,WNW,302,0.0,0.0,87,0.00,CLR,,0.00,0.0,WeatherDisplay:10.37,2013-02-03 06:11:00,
2013-02-03 00:16:00,18.1,14.9,30.06,WNW,302,0.0,0.0,87,0.00,CLR,,0.00,0.0,WeatherDisplay:10.37,2013-02-03 06:16:00,
2013-02-03 00:21:00,18.2,15.0,30.05,WNW,302,0.0,0.0,87,0.00,CLR,,0.00,0.0,WeatherDisplay:10.37,2013-02-03 06:21:00,
2013-02-03 00:26:00,18.1,14.9,30.05,WNW,302,0.0,0.0,87,0.00,CLR,,0.00,0.0,WeatherDisplay:10.37,2013-02-03 06:26:00,
2013-02-03 00:31:00,18.2,15.0,30.05,WNW,302,0.0,0.0,87,0.00,CLR,,0.00,0.0,WeatherDisplay:10.37,2013-02-03 06:31:00,
2013-02-03 00:36:00,18.2,15.0,30.05,WNW,302,0.0,0.0,87,0.00,CLR,,0.00,0.0,WeatherDisplay:10.37,2013-02-03 06:36:00,
2013-02-03 00:41:00,18.3,15.1,30.05,WNW,302,0.0,0.0,87,0.00,CLR,,0.00,0.0,WeatherDisplay:10.37,2013-02-03 06:41:00,
2013-02-03 00:46:00,18.3,15.1,30.05,WNW,302,0.0,0.0,87,0.00,CLR,,0.00,0.0,WeatherDisplay:10.37,2013-02-03 06:46:00,
2013-02-03 00:51:00,18.4,15.2,30.04,WNW,302,0.0,0.0,87,0.00,CLR,,0.00,0.0,WeatherDisplay:10.37,2013-02-03 06:51:00,
2013-02-03 00:56:00,18.4,15.2,30.04,WNW,302,0.0,0.0,87,0.00,CLR,,0.00,0.0,WeatherDisplay:10.37,2013-02-03 06:56:00,
2013-02-03 01:01:00,18.4,15.2,30.04,WNW,302,0.0,0.0,87,0.00,CLR,,0.00,0.0,WeatherDisplay:10.37,2013-02-03 07:01:00,
2013-02-03 01:06:00,18.3,15.1,30.04,WNW,302,0.0,0.0,87,0.00,CLR,,0.00,0.0,WeatherDisplay:10.37,2013-02-03 07:06:00,
2013-02-03 01:11:00,18.3,15.3,30.04,WNW,302,0.0,0.0,88,0.00,CLR,,0.00,0.0,WeatherDisplay:10.37,2013-02-03 07:11:00,
2013-02-03 01:16:00,18.3,15.3,30.04,WNW,302,0.0,0.0,88,0.00,OVC,,0.00,0.0,WeatherDisplay:10.37,2013-02-03 07:16:00,
2013-02-03 01:21:00,18.3,15.3,30.04,WNW,302,0.0,0.0,88,0.00,CLR,,0.00,0.0,WeatherDisplay:10.37,2013-02-03 07:21:00,
2013-02-03 01:26:00,18.3,15.3,30.04,WNW,302,0.0,0.0,88,0.00,CLR,,0.00,0.0,WeatherDisplay:10.37,2013-02-03 07:26:00,
2013-02-03 01:31:00,18.4,15.4,30.03,WNW,302,0.0,0.0,88,0.00,CLR,,0.00,0.0,WeatherDisplay:10.37,2013-02-03 07:31:00,
2013-02-03 01:36:00,18.3,15.3,30.04,WNW,302,0.0,0.0,88,0.00,CLR,,0.00,0.0,WeatherDisplay:10.37,2013-02-03 07:36:00,
2013-02-03 01:41:00,18.5,15.5,30.03,WNW,302,0.0,0.0,88,0.00,CLR,,0.00,0.0,WeatherDisplay:10.37,2013-02-03 07:41:00,
2013-02-03 01:46:00,18.5,15.5,30.03,WNW,302,0.0,0.0,88,0.00,CLR,,0.00,0.0,WeatherDisplay:10.37,2013-02-03 07:46:00,
2013-02-03 01:51:00,18.3,15.3,30.04,WNW,302,0.0,0.0,88,0.00,CLR,,0.00,0.0,WeatherDisplay:10.37,2013-02-03 07:51:00,
2013-02-03 01:56:00,18.3,15.3,30.04,WNW,302,0.0,0.0,88,0.00,CLR,,0.00,0.0,WeatherDisplay:10.37,2013-02-03 07:56:00,
2013-02-03 02:01:00,18.3,15.3,30.04,WNW,302,0.0,0.0,88,0.00,CLR,,0.00,0.0,WeatherDisplay:10.37,2013-02-03 08:01:00,
2013-02-03 02:06:00,18.6,15.6,30.03,WNW,302,0.0,0.0,88,0.00,CLR,,0.00,0.0,WeatherDisplay:10.37,2013-02-03 08:06:00,
2013-02-03 02:11:00,18.7,15.7,30.02,WNW,302,0.0,0.0,88,0.00,CLR,,0.00,0.0,WeatherDisplay:10.37,2013-02-03 08:11:00,
2013-02-03 02:16:00,18.3,15.3,30.04,WNW,302,0.0,0.0,88,0.00,CLR,,0.00,0.0,WeatherDisplay:10.37,2013-02-03 08:16:00,
2013-02-03 02:21:00,18.7,15.7,30.03,WNW,302,2.3,2.3,88,0.00,CLR,,0.00,0.0,WeatherDisplay:10.37,2013-02-03 08:21:00,
2013-02-03 02:26:00,18.8,15.8,30.03,WNW,302,0.0,0.6,88,0.00,CLR,,0.00,0.0,WeatherDisplay:10.37,2013-02-03 08:26:00,
2013-02-03 02:31:00,18.8,15.8,30.03,WNW,302,1.2,1.4,88,0.00,CLR,,0.00,0.0,WeatherDisplay:10.37,2013-02-03 08:31:00,
2013-02-03 02:36:00,18.8,15.8,30.03,WNW,302,0.0,0.6,88,0.00,CLR,,0.00,0.0,WeatherDisplay:10.37,2013-02-03 08:36:00,
2013-02-03 02:41:00,18.8,15.8,30.03,WNW,302,1.2,1.4,88,0.00,CLR,,0.00,0.0,WeatherDisplay:10.37,2013-02-03 08:41:00,
2013-02-03 02:46:00,18.8,15.8,30.02,WNW,302,0.0,0.0,88,0.00,CLR,,0.00,0.0,WeatherDisplay:10.37,2013-02-03 08:46:00,
2013-02-03 02:51:00,18.8,15.8,30.03,WNW,302,1.2,1.4,88,0.00,CLR,,0.00,0.0,WeatherDisplay:10.37,2013-02-03 08:51:00,
2013-02-03 02:56:00,18.8,15.8,30.03,WNW,302,1.2,1.4,88,0.00,CLR,,0.00,0.0,WeatherDisplay:10.37,2013-02-03 08:56:00,
2013-02-03 03:01:00,18.9,16.2,30.01,WNW,302,0.0,0.0,89,0.00,CLR,,0.00,0.0,WeatherDisplay:10.37,2013-02-03 09:01:00,
2013-02-03 03:06:00,18.9,16.2,30.01,WNW,302,0.0,0.0,89,0.00,CLR,,0.00,0.0,WeatherDisplay:10.37,2013-02-03 09:06:00,
2013-02-03 03:11:00,18.9,16.2,30.01,WNW,302,0.0,0.0,89,0.00,CLR,,0.00,0.0,WeatherDisplay:10.37,2013-02-03 09:11:00,
2013-02-03 03:16:00,18.9,16.2,30.01,WNW,302,0.0,0.0,89,0.00,CLR,,0.00,0.0,WeatherDisplay:10.37,2013-02-03 09:16:00,
2013-02-03 03:21:00,18.9,16.2,30.01,WNW,302,0.0,0.0,89,0.00,CLR,,0.00,0.0,WeatherDisplay:10.37,2013-02-03 09:21:00,
2013-02-03 03:26:00,18.9,16.2,30.01,WNW,302,0.0,0.0,89,0.00,CLR,,0.00,0.0,WeatherDisplay:10.37,2013-02-03 09:26:00,
2013-02-03 03:31:00,18.9,16.2,30.01,WNW,302,0.0,0.0,89,0.00,CLR,,0.00,0.0,WeatherDisplay:10.37,2013-02-03 09:31:00,
2013-02-03 03:36:00,19.2,16.7,30.01,West,265,0.0,0.0,90,0.00,CLR,,0.00,0.0,WeatherDisplay:10.37,2013-02-03 09:36:00,
2013-02-03 03:41:00,19.2,16.7,30.01,West,265,0.0,0.0,90,0.00,CLR,,0.00,0.0,WeatherDisplay:10.37,2013-02-03 09:41:00,
2013-02-03 03:46:00,19.2,16.7,30.01,WSW,241,4.6,4.6,90,0.00,CLR,,0.00,0.0,WeatherDisplay:10.37,2013-02-03 09:46:00,
2013-02-03 03:51:00,18.9,16.2,30.01,WNW,302,0.0,0.0,89,0.00,CLR,,0.00,0.0,WeatherDisplay:10.37,2013-02-03 09:51:00,
2013-02-03 03:56:00,19.3,17.1,30.01,WSW,242,0.0,0.0,91,0.00,CLR,,0.00,0.0,WeatherDisplay:10.37,2013-02-03 09:56:00,
2013-02-03 04:01:00,18.9,16.2,30.01,WNW,302,0.0,0.0,89,0.00,CLR,,0.00,0.0,WeatherDisplay:10.37,2013-02-03 10:01:00,
2013-02-03 04:06:00,19.3,17.1,30.01,WSW,242,0.0,0.0,91,0.00,CLR,,0.00,0.0,WeatherDisplay:10.37,2013-02-03 10:06:00,
2013-02-03 04:11:00,19.4,17.2,30.01,WSW,242,0.0,0.0,91,0.00,CLR,,0.00,0.0,WeatherDisplay:10.37,2013-02-03 10:11:00,
2013-02-03 04:16:00,18.9,16.2,30.01,WNW,302,0.0,0.0,89,0.00,CLR,,0.00,0.0,WeatherDisplay:10.37,2013-02-03 10:16:00,
2013-02-03 04:21:00,18.9,16.2,30.01,WNW,302,0.0,0.0,89,0.00,CLR,,0.00,0.0,WeatherDisplay:10.37,2013-02-03 10:21:00,
2013-02-03 04:26:00,18.9,16.2,30.01,WNW,302,0.0,0.0,89,0.00,CLR,,0.00,0.0,WeatherDisplay:10.37,2013-02-03 10:26:00,
2013-02-03 04:31:00,19.7,17.5,30.02,WSW,241,3.5,0.0,91,0.00,CLR,,0.00,0.0,WeatherDisplay:10.37,2013-02-03 10:31:00,
2013-02-03 04:36:00,18.9,16.2,30.01,WNW,302,0.0,0.0,89,0.00,CLR,,0.00,0.0,WeatherDisplay:10.37,2013-02-03 10:36:00,
2013-02-03 04:41:00,18.9,16.2,30.01,WNW,302,0.0,0.0,89,0.00,CLR,,0.00,0.0,WeatherDisplay:10.37,2013-02-03 10:41:00,
2013-02-03 04:46:00,18.9,16.2,30.01,WNW,302,0.0,0.0,89,0.00,CLR,,0.00,0.0,WeatherDisplay:10.37,2013-02-03 10:46:00,
2013-02-03 04:51:00,19.9,17.7,30.02,WSW,242,0.0,0.0,91,0.00,CLR,,0.00,0.0,WeatherDisplay:10.37,2013-02-03 10:51:00,
2013-02-03 04:56:00,18.9,16.2,30.01,WNW,302,0.0,0.0,89,0.00,CLR,,0.00,0.0,WeatherDisplay:10.37,2013-02-03 10:56:00,
2013-02-03 05:01:00,18.9,16.2,30.01,WNW,302,0.0,0.0,89,0.00,CLR,,0.00,0.0,WeatherDisplay:10.37,2013-02-03 11:01:00,
2013-02-03 05:06:00,20.2,18.2,30.02,WSW,242,3.5,3.5,92,0.00,CLR,,0.00,0.0,WeatherDisplay:10.37,2013-02-03 11:06:00,
2013-02-03 05:11:00,20.3,18.3,30.02,WSW,242,2.3,2.3,92,0.00,CLR,,0.00,0.0,WeatherDisplay:10.37,2013-02-03 11:11:00,
2013-02-03 05:16:00,20.4,18.4,30.03,WSW,242,3.5,0.0,92,0.00,CLR,,0.00,0.0,WeatherDisplay:10.37,2013-02-03 11:16:00,
2013-02-03 05:21:00,18.9,16.2,30.01,WNW,302,0.0,0.0,89,0.00,CLR,,0.00,0.0,WeatherDisplay:10.37,2013-02-03 11:21:00,
2013-02-03 05:26:00,20.6,18.6,30.03,WSW,242,0.0,0.0,92,0.00,CLR,,0.00,0.0,WeatherDisplay:10.37,2013-02-03 11:26:00,
2013-02-03 05:31:00,18.9,16.2,30.01,WNW,302,0.0,0.0,89,0.00,CLR,,0.00,0.0,WeatherDisplay:10.37,2013-02-03 11:31:00,
2013-02-03 05:36:00,18.9,16.2,30.01,WNW,302,0.0,0.0,89,0.00,CLR,,0.00,0.0,WeatherDisplay:10.37,2013-02-03 11:36:00,
2013-02-03 05:41:00,18.9,16.2,30.01,WNW,302,0.0,0.0,89,0.00,CLR,,0.00,0.0,WeatherDisplay:10.37,2013-02-03 11:41:00,
2013-02-03 05:46:00,21.0,19.0,30.03,West,281,4.6,4.6,92,0.00,CLR,,0.00,0.0,WeatherDisplay:10.37,2013-02-03 11:46:00,
2013-02-03 05:51:00,18.9,16.2,30.01,WNW,302,0.0,0.0,89,0.00,CLR,,0.00,0.0,WeatherDisplay:10.37,2013-02-03 11:51:00,
2013-02-03 05:56:00,18.9,16.2,30.01,WNW,302,0.0,0.0,89,0.00,CLR,,0.00,0.0,WeatherDisplay:10.37,2013-02-03 11:56:00,
2013-02-03 06:01:00,22.3,20.3,30.03,NW,306,12.7,12.7,92,0.00,CLR,,0.00,0.0,WeatherDisplay:10.37,2013-02-03 12:01:00,
2013-02-03 06:07:00,22.5,20.5,30.03,NW,305,13.8,13.8,92,0.00,CLR,,0.00,0.0,WeatherDisplay:10.37,2013-02-03 12:07:00,
2013-02-03 06:12:00,18.9,16.2,30.01,WNW,302,0.0,0.0,89,0.00,CLR,,0.00,0.0,WeatherDisplay:10.37,2013-02-03 12:12:00,
2013-02-03 06:17:00,18.9,16.2,30.01,WNW,302,0.0,0.0,89,0.00,CLR,,0.00,0.0,WeatherDisplay:10.37,2013-02-03 12:17:00,
2013-02-03 06:22:00,18.9,16.2,30.01,WNW,302,0.0,0.0,89,0.00,CLR,,0.00,0.0,WeatherDisplay:10.37,2013-02-03 12:22:00,
2013-02-03 06:27:00,18.9,16.2,30.01,WNW,302,0.0,0.0,89,0.00,CLR,,0.00,0.0,WeatherDisplay:10.37,2013-02-03 12:27:00,
2013-02-03 06:32:00,23.2,21.0,30.04,WNW,299,11.5,11.5,91,0.00,CLR,,0.00,0.0,WeatherDisplay:10.37,2013-02-03 12:32:00,
2013-02-03 06:37:00,23.3,20.8,30.04,NW,313,7.0,7.0,90,0.00,CLR,,0.00,0.0,WeatherDisplay:10.37,2013-02-03 12:37:00,
2013-02-03 06:42:00,23.4,20.9,30.04,WNW,298,19.6,19.6,90,0.00,CLR,,0.00,0.0,WeatherDisplay:10.37,2013-02-03 12:42:00,
2013-02-03 06:47:00,23.6,20.8,30.04,NW,305,12.7,12.7,89,0.00,CLR,,0.00,0.0,WeatherDisplay:10.37,2013-02-03 12:47:00,
2013-02-03 06:52:00,23.6,20.6,30.04,NW,306,11.5,11.5,88,0.00,CLR,,0.00,0.0,WeatherDisplay:10.37,2013-02-03 12:52:00,
2013-02-03 06:57:00,18.9,16.2,30.01,WNW,302,0.0,0.0,89,0.00,CLR,,0.00,0.0,WeatherDisplay:10.37,2013-02-03 12:57:00,
2013-02-03 07:02:00,18.9,16.2,30.01,WNW,302,0.0,0.0,89,0.00,OVC,,0.00,0.0,WeatherDisplay:10.37,2013-02-03 13:02:00,
2013-02-03 07:07:00,23.7,20.7,30.05,West,281,5.8,5.8,88,0.00,OVC,,0.00,0.0,WeatherDisplay:10.37,2013-02-03 13:07:00,
2013-02-03 07:12:00,23.7,20.4,30.05,WNW,300,5.8,5.8,87,0.00,OVC,,0.00,0.0,WeatherDisplay:10.37,2013-02-03 13:12:00,
2013-02-03 07:17:00,18.9,16.2,30.01,WNW,302,0.0,0.0,89,0.00,OVC,,0.00,0.0,WeatherDisplay:10.37,2013-02-03 13:17:00,
2013-02-03 07:22:00,23.6,20.3,30.05,WNW,302,10.4,10.4,87,0.00,OVC,,0.00,5.0,WeatherDisplay:10.37,2013-02-03 13:22:00,
2013-02-03 07:27:00,23.4,20.1,30.05,West,280,11.5,11.5,87,0.00,OVC,,0.00,5.0,WeatherDisplay:10.37,2013-02-03 13:27:00,
2013-02-03 07:32:00,23.4,20.1,30.05,West,280,11.5,11.5,87,0.00,OVC,,0.00,5.0,WeatherDisplay:10.37,2013-02-03 13:32:00,
2013-02-03 07:37:00,23.1,19.5,30.07,WNW,300,13.8,13.8,86,0.00,OVC,,0.00,14.0,WeatherDisplay:10.37,2013-02-03 13:37:00,
2013-02-03 07:42:00,23.4,20.1,30.05,West,280,11.5,11.5,87,0.00,OVC,,0.00,5.0,WeatherDisplay:10.37,2013-02-03 13:42:00,
2013-02-03 07:47:00,22.9,19.1,30.08,WNW,295,12.0,12.0,85,0.00,OVC,,0.00,32.0,WeatherDisplay:10.37,2013-02-03 13:47:00,
2013-02-03 07:52:00,23.4,20.1,30.05,West,280,11.5,11.5,87,0.00,OVC,,0.00,5.0,WeatherDisplay:10.37,2013-02-03 13:52:00,
2013-02-03 07:57:00,23.4,20.1,30.05,West,280,11.5,11.5,87,0.00,OVC,,0.00,5.0,WeatherDisplay:10.37,2013-02-03 13:57:00,
2013-02-03 08:02:00,23.4,20.1,30.05,West,280,11.5,11.5,87,0.00,OVC,,0.00,5.0,WeatherDisplay:10.37,2013-02-03 14:02:00,
2013-02-03 08:07:00,23.4,20.1,30.05,West,280,11.5,11.5,87,0.00,OVC,,0.00,5.0,WeatherDisplay:10.37,2013-02-03 14:07:00,
2013-02-03 08:12:00,22.6,18.2,30.09,WNW,293,13.8,13.8,83,0.00,OVC,,0.00,56.0,WeatherDisplay:10.37,2013-02-03 14:12:00,
2013-02-03 08:17:00,22.5,17.8,30.09,WNW,300,13.8,13.8,82,0.00,OVC,,0.00,69.0,WeatherDisplay:10.37,2013-02-03 14:17:00,
2013-02-03 08:22:00,23.4,20.1,30.05,West,280,11.5,11.5,87,0.00,OVC,,0.00,5.0,WeatherDisplay:10.37,2013-02-03 14:22:00,
2013-02-03 08:27:00,23.4,20.1,30.05,West,280,11.5,11.5,87,0.00,OVC,,0.00,5.0,WeatherDisplay:10.37,2013-02-03 14:27:00,
2013-02-03 08:32:00,23.4,20.1,30.05,West,280,11.5,11.5,87,0.00,OVC,,0.00,5.0,WeatherDisplay:10.37,2013-02-03 14:32:00,
2013-02-03 08:37:00,22.1,17.4,30.09,WNW,287,17.3,17.3,82,0.00,BKN,,0.00,128.0,WeatherDisplay:10.37,2013-02-03 14:37:00,
2013-02-03 08:42:00,21.9,17.2,30.10,WNW,289,6.0,6.0,82,0.00,OVC,,0.00,95.0,WeatherDisplay:10.37,2013-02-03 14:42:00,
2013-02-03 08:47:00,21.7,16.8,30.10,WNW,282,14.0,14.0,81,0.00,OVC,,0.00,67.0,WeatherDisplay:10.37,2013-02-03 14:47:00,
2013-02-03 08:52:00,21.4,16.5,30.10,WNW,300,15.0,15.0,81,0.00,OVC,,0.00,102.0,WeatherDisplay:10.37,2013-02-03 14:52:00,
2013-02-03 08:57:00,21.3,16.4,30.10,WNW,292,6.9,6.9,81,0.00,OVC,,0.00,104.0,WeatherDisplay:10.37,2013-02-03 14:57:00,
2013-02-03 09:02:00,23.4,20.1,30.05,West,280,11.5,11.5,87,0.00,OVC,,0.00,5.0,WeatherDisplay:10.37,2013-02-03 15:02:00,
2013-02-03 09:07:00,23.4,20.1,30.05,West,280,11.5,11.5,87,0.00,OVC,,0.00,5.0,WeatherDisplay:10.37,2013-02-03 15:07:00,
2013-02-03 09:12:00,23.4,20.1,30.05,West,280,11.5,11.5,87,0.00,OVC,,0.00,5.0,WeatherDisplay:10.37,2013-02-03 15:12:00,
2013-02-03 09:17:00,23.4,20.1,30.05,West,280,11.5,11.5,87,0.00,OVC,,0.00,5.0,WeatherDisplay:10.37,2013-02-03 15:17:00,
2013-02-03 09:22:00,20.7,15.2,30.11,WNW,287,11.5,11.5,79,0.00,SCT,,0.00,258.0,WeatherDisplay:10.37,2013-02-03 15:22:00,
2013-02-03 09:27:00,20.8,15.3,30.11,WNW,300,5.8,5.8,79,0.00,BKN,,0.00,204.0,WeatherDisplay:10.37,2013-02-03 15:27:00,
2013-02-03 09:32:00,21.0,15.2,30.11,North,360,15.0,15.0,78,0.00,OVC,,0.00,114.0,WeatherDisplay:10.37,2013-02-03 15:32:00,
2013-02-03 09:37:00,21.2,15.4,30.11,WNW,300,12.7,12.7,78,0.00,BKN,,0.00,181.0,WeatherDisplay:10.37,2013-02-03 15:37:00,
2013-02-03 09:42:00,21.3,15.2,30.12,WNW,302,15.0,15.0,77,0.00,SCT,,0.00,227.0,WeatherDisplay:10.37,2013-02-03 15:42:00,
2013-02-03 09:47:00,21.1,15.0,30.12,West,277,11.5,11.5,77,0.00,BKN,,0.00,204.0,WeatherDisplay:10.37,2013-02-03 15:47:00,
2013-02-03 09:52:00,21.2,15.1,30.13,WNW,297,10.4,10.4,77,0.00,SCT,,0.00,345.0,WeatherDisplay:10.37,2013-02-03 15:52:00,
2013-02-03 09:57:00,21.4,15.3,30.13,WNW,282,19.6,19.6,77,0.00,SCT,,0.00,378.0,WeatherDisplay:10.37,2013-02-03 15:57:00,
2013-02-03 10:02:00,21.4,15.3,30.13,WNW,282,3.5,5.0,77,0.00,SCT,,0.00,378.0,WeatherDisplay:10.37,2013-02-03 16:02:00,
2013-02-03 10:07:00,21.4,15.3,30.13,WNW,282,3.5,5.0,77,0.00,SCT,,0.00,378.0,WeatherDisplay:10.37,2013-02-03 16:07:00,
2013-02-03 10:12:00,21.4,15.3,30.13,WNW,282,3.5,5.0,77,0.00,SCT,,0.00,378.0,WeatherDisplay:10.37,2013-02-03 16:12:00,
2013-02-03 10:17:00,21.4,14.7,30.13,NW,312,18.4,18.4,75,0.00,CLR,,0.00,519.0,WeatherDisplay:10.37,2013-02-03 16:17:00,
2013-02-03 10:22:00,21.4,15.3,30.13,WNW,282,3.5,5.0,77,0.00,SCT,,0.00,378.0,WeatherDisplay:10.37,2013-02-03 16:22:00,
2013-02-03 10:27:00,21.7,14.7,30.14,WNW,288,12.7,12.7,74,0.00,CLR,,0.00,538.0,WeatherDisplay:10.37,2013-02-03 16:27:00,
2013-02-03 10:32:00,21.4,15.3,30.13,WNW,282,3.5,5.0,77,0.00,SCT,,0.00,378.0,WeatherDisplay:10.37,2013-02-03 16:32:00,
2013-02-03 10:37:00,21.9,15.2,30.15,WNW,294,11.5,11.5,75,0.00,CLR,,0.00,552.0,WeatherDisplay:10.37,2013-02-03 16:37:00,
2013-02-03 10:42:00,22.1,15.1,30.14,WNW,287,13.8,13.8,74,0.00,CLR,,0.00,555.0,WeatherDisplay:10.37,2013-02-03 16:42:00,
2013-02-03 10:47:00,22.3,15.6,30.15,NW,319,4.6,4.6,75,0.00,CLR,,0.00,564.0,WeatherDisplay:10.37,2013-02-03 16:47:00,
2013-02-03 10:52:00,21.4,15.3,30.13,WNW,282,3.5,5.0,77,0.00,SCT,,0.00,378.0,WeatherDisplay:10.37,2013-02-03 16:52:00,
2013-02-03 10:57:00,21.4,15.3,30.13,WNW,282,3.5,5.0,77,0.00,SCT,,0.00,378.0,WeatherDisplay:10.37,2013-02-03 16:57:00,
2013-02-03 11:02:00,21.4,15.3,30.13,WNW,282,3.5,5.0,77,0.00,SCT,,0.00,378.0,WeatherDisplay:10.37,2013-02-03 17:02:00,
2013-02-03 11:07:00,21.4,15.3,30.13,WNW,282,3.5,5.0,77,0.00,SCT,,0.00,378.0,WeatherDisplay:10.37,2013-02-03 17:07:00,
2013-02-03 11:12:00,22.5,14.8,30.15,West,267,10.4,10.4,72,0.00,CLR,,0.00,592.0,WeatherDisplay:10.37,2013-02-03 17:12:00,
2013-02-03 11:17:00,21.4,15.3,30.13,WNW,282,3.5,5.0,77,0.00,SCT,,0.00,378.0,WeatherDisplay:10.37,2013-02-03 17:17:00,
2013-02-03 11:22:00,22.4,14.4,30.15,WNW,296,12.7,12.7,71,0.00,CLR,,0.00,601.0,WeatherDisplay:10.37,2013-02-03 17:22:00,
2013-02-03 11:27:00,21.4,15.3,30.13,WNW,282,3.5,5.0,77,0.00,SCT,,0.00,378.0,WeatherDisplay:10.37,2013-02-03 17:27:00,
2013-02-03 11:32:00,22.6,14.6,30.16,WNW,287,13.8,13.8,71,0.00,FEW,,0.00,603.0,WeatherDisplay:10.37,2013-02-03 17:32:00,
2013-02-03 11:37:00,22.5,14.5,30.15,WNW,284,13.8,13.8,71,0.00,FEW,,0.00,606.0,WeatherDisplay:10.37,2013-02-03 17:37:00,
2013-02-03 11:42:00,22.6,14.6,30.16,WNW,295,12.7,12.7,71,0.00,CLR,,0.00,612.0,WeatherDisplay:10.37,2013-02-03 17:42:00,
2013-02-03 11:47:00,22.9,14.9,30.15,West,281,5.8,5.8,71,0.00,CLR,,0.00,612.0,WeatherDisplay:10.37,2013-02-03 17:47:00,
2013-02-03 11:52:00,21.4,15.3,30.13,WNW,282,3.5,5.0,77,0.00,SCT,,0.00,378.0,WeatherDisplay:10.37,2013-02-03 17:52:00,
2013-02-03 11:57:00,21.4,15.3,30.13,WNW,282,3.5,5.0,77,0.00,SCT,,0.00,378.0,WeatherDisplay:10.37,2013-02-03 17:57:00,
2013-02-03 12:02:00,21.4,15.3,30.13,WNW,282,3.5,5.0,77,0.00,SCT,,0.00,378.0,WeatherDisplay:10.37,2013-02-03 18:02:00,
2013-02-03 12:07:00,23.9,14.5,30.14,WNW,291,11.5,11.5,67,0.00,CLR,,0.00,626.0,WeatherDisplay:10.37,2013-02-03 18:07:00,
2013-02-03 12:12:00,21.4,15.3,30.13,WNW,282,3.5,5.0,77,0.00,SCT,,0.00,378.0,WeatherDisplay:10.37,2013-02-03 18:12:00,
2013-02-03 12:17:00,21.4,15.3,30.13,WNW,282,3.5,5.0,77,0.00,SCT,,0.00,378.0,WeatherDisplay:10.37,2013-02-03 18:17:00,
2013-02-03 12:22:00,24.4,14.7,30.14,WNW,283,19.6,19.6,66,0.00,FEW,,0.00,619.0,WeatherDisplay:10.37,2013-02-03 18:22:00,
2013-02-03 12:27:00,21.4,15.3,30.13,WNW,282,3.5,5.0,77,0.00,SCT,,0.00,378.0,WeatherDisplay:10.37,2013-02-03 18:27:00,
2013-02-03 12:32:00,21.4,15.3,30.13,WNW,282,3.5,5.0,77,0.00,SCT,,0.00,378.0,WeatherDisplay:10.37,2013-02-03 18:32:00,
2013-02-03 12:37:00,21.4,15.3,30.13,WNW,282,3.5,5.0,77,0.00,SCT,,0.00,378.0,WeatherDisplay:10.37,2013-02-03 18:37:00,
2013-02-03 12:42:00,21.4,15.3,30.13,WNW,282,3.5,5.0,77,0.00,SCT,,0.00,378.0,WeatherDisplay:10.37,2013-02-03 18:42:00,
2013-02-03 12:47:00,21.4,15.3,30.13,WNW,282,3.5,5.0,77,0.00,SCT,,0.00,378.0,WeatherDisplay:10.37,2013-02-03 18:47:00,
2013-02-03 12:52:00,25.4,16.0,30.14,NW,306,9.2,9.2,67,0.00,FEW,,0.00,601.0,WeatherDisplay:10.37,2013-02-03 18:52:00,
2013-02-03 12:57:00,25.9,16.8,30.14,West,281,9.2,9.2,68,0.00,FEW,,0.00,605.0,WeatherDisplay:10.37,2013-02-03 18:57:00,
2013-02-03 13:02:00,21.4,15.3,30.13,WNW,282,3.5,5.0,77,0.00,SCT,,0.00,378.0,WeatherDisplay:10.37,2013-02-03 19:02:00,
2013-02-03 13:07:00,26.1,16.3,30.13,WNW,286,12.7,12.7,66,0.00,CLR,,0.00,608.0,WeatherDisplay:10.37,2013-02-03 19:07:00,
2013-02-03 13:12:00,26.3,16.1,30.13,West,263,13.8,13.8,65,0.00,CLR,,0.00,605.0,WeatherDisplay:10.37,2013-02-03 19:12:00,
2013-02-03 13:17:00,26.4,16.2,30.13,West,270,12.7,12.7,65,0.00,FEW,,0.00,596.0,WeatherDisplay:10.37,2013-02-03 19:17:00,
2013-02-03 13:22:00,21.4,15.3,30.13,WNW,282,3.5,5.0,77,0.00,SCT,,0.00,378.0,WeatherDisplay:10.37,2013-02-03 19:22:00,
2013-02-03 13:27:00,26.7,16.5,30.13,West,281,11.5,11.5,65,0.00,CLR,,0.00,612.0,WeatherDisplay:10.37,2013-02-03 19:27:00,
2013-02-03 13:32:00,21.4,15.3,30.13,WNW,282,3.5,5.0,77,0.00,SCT,,0.00,378.0,WeatherDisplay:10.37,2013-02-03 19:32:00,
2013-02-03 13:37:00,21.4,15.3,30.13,WNW,282,3.5,5.0,77,0.00,SCT,,0.00,378.0,WeatherDisplay:10.37,2013-02-03 19:37:00,
2013-02-03 13:42:00,21.4,15.3,30.13,WNW,282,3.5,5.0,77,0.00,SCT,,0.00,378.0,WeatherDisplay:10.37,2013-02-03 19:42:00,
2013-02-03 13:47:00,27.9,17.3,30.12,SW,217,8.1,8.1,64,0.00,FEW,,0.00,557.0,WeatherDisplay:10.37,2013-02-03 19:47:00,
2013-02-03 13:52:00,21.4,15.3,30.13,WNW,282,3.5,5.0,77,0.00,SCT,,0.00,378.0,WeatherDisplay:10.37,2013-02-03 19:52:00,
2013-02-03 13:58:00,21.4,15.3,30.13,WNW,282,3.5,5.0,77,0.00,SCT,,0.00,378.0,WeatherDisplay:10.37,2013-02-03 19:58:00,
2013-02-03 14:03:00,28.1,17.1,30.12,WSW,253,11.5,11.5,63,0.00,CLR,,0.00,617.0,WeatherDisplay:10.37,2013-02-03 20:03:00,
2013-02-03 14:08:00,27.9,16.2,30.12,West,279,16.1,16.1,61,0.00,FEW,,0.00,446.0,WeatherDisplay:10.37,2013-02-03 20:08:00,
2013-02-03 14:13:00,27.9,16.6,30.12,West,273,10.4,10.4,62,0.00,CLR,,0.00,520.0,WeatherDisplay:10.37,2013-02-03 20:13:00,
2013-02-03 14:18:00,28.1,16.7,30.12,NW,307,12.7,12.7,62,0.00,CLR,,0.00,496.0,WeatherDisplay:10.37,2013-02-03 20:18:00,
2013-02-03 14:23:00,28.8,17.4,30.12,West,281,9.2,9.2,62,0.00,FEW,,0.00,504.0,WeatherDisplay:10.37,2013-02-03 20:23:00,
2013-02-03 14:28:00,21.4,15.3,30.13,WNW,282,3.5,5.0,77,0.00,SCT,,0.00,378.0,WeatherDisplay:10.37,2013-02-03 20:28:00,
2013-02-03 14:33:00,28.8,17.0,30.11,WNW,282,12.7,12.7,61,0.00,FEW,,0.00,464.0,WeatherDisplay:10.37,2013-02-03 20:33:00,
2013-02-03 14:38:00,21.4,15.3,30.13,WNW,282,3.5,5.0,77,0.00,SCT,,0.00,378.0,WeatherDisplay:10.37,2013-02-03 20:38:00,
2013-02-03 14:43:00,21.4,15.3,30.13,WNW,282,3.5,5.0,77,0.00,FEW,,0.00,378.0,WeatherDisplay:10.37,2013-02-03 20:43:00,
2013-02-03 14:48:00,21.4,15.3,30.13,WNW,282,3.5,5.0,77,0.00,FEW,,0.00,378.0,WeatherDisplay:10.37,2013-02-03 20:48:00,
2013-02-03 14:53:00,28.4,16.7,30.12,WNW,290,15.0,15.0,61,0.00,BKN,,0.00,244.0,WeatherDisplay:10.37,2013-02-03 20:53:00,
2013-02-03 14:58:00,21.4,15.3,30.13,WNW,282,3.5,5.0,77,0.00,FEW,,0.00,378.0,WeatherDisplay:10.37,2013-02-03 20:58:00,
2013-02-03 15:03:00,27.8,16.8,30.11,WNW,288,3.5,3.5,63,0.00,BKN,,0.00,193.0,WeatherDisplay:10.37,2013-02-03 21:03:00,
2013-02-03 15:08:00,21.4,15.3,30.13,WNW,282,3.5,5.0,77,0.00,FEW,,0.00,378.0,WeatherDisplay:10.37,2013-02-03 21:08:00,
2013-02-03 15:13:00,27.7,17.1,30.11,West,275,9.2,9.2,64,0.00,OVC,,0.00,149.0,WeatherDisplay:10.37,2013-02-03 21:13:00,
2013-02-03 15:18:00,21.4,15.3,30.13,WNW,282,3.5,5.0,77,0.00,CLR,,0.00,378.0,WeatherDisplay:10.37,2013-02-03 21:18:00,
2013-02-03 15:23:00,27.3,16.4,30.11,SW,234,3.5,3.5,63,0.00,OVC,,0.00,135.0,WeatherDisplay:10.37,2013-02-03 21:23:00,
2013-02-03 15:28:00,27.1,16.2,30.10,West,263,9.2,9.2,63,0.00,OVC,,0.00,134.0,WeatherDisplay:10.37,2013-02-03 21:28:00,
2013-02-03 15:33:00,26.9,16.3,30.10,WSW,238,6.9,6.9,64,0.00,OVC,,0.00,128.0,WeatherDisplay:10.37,2013-02-03 21:33:00,
2013-02-03 15:38:00,26.8,16.2,30.10,SW,223,6.9,6.9,64,0.00,OVC,,0.00,116.0,WeatherDisplay:10.37,2013-02-03 21:38:00,
2013-02-03 15:43:00,26.9,16.3,30.10,West,280,9.2,9.2,64,0.00,OVC,,0.00,93.0,WeatherDisplay:10.37,2013-02-03 21:43:00,
2013-02-03 15:48:00,26.9,16.3,30.10,West,265,4.6,4.6,64,0.00,OVC,,0.00,91.0,WeatherDisplay:10.37,2013-02-03 21:48:00,
2013-02-03 15:53:00,26.9,16.3,30.10,West,265,4.6,4.6,64,0.00,OVC,,0.00,91.0,WeatherDisplay:10.37,2013-02-03 21:53:00,
2013-02-03 15:58:00,26.9,16.7,30.10,WSW,242,5.8,5.8,65,0.00,OVC,,0.00,70.0,WeatherDisplay:10.37,2013-02-03 21:58:00,
2013-02-03 16:03:00,26.9,16.3,30.10,West,265,4.6,4.6,64,0.00,OVC,,0.00,91.0,WeatherDisplay:10.37,2013-02-03 22:03:00,
2013-02-03 16:08:00,26.9,16.3,30.10,West,265,4.6,4.6,64,0.00,OVC,,0.00,91.0,WeatherDisplay:10.37,2013-02-03 22:08:00,
2013-02-03 16:13:00,26.9,16.3,30.10,West,265,4.6,4.6,64,0.00,BKN,,0.00,91.0,WeatherDisplay:10.37,2013-02-03 22:13:00,
2013-02-03 16:18:00,26.9,16.3,30.10,West,265,4.6,4.6,64,0.00,BKN,,0.00,91.0,WeatherDisplay:10.37,2013-02-03 22:18:00,
2013-02-03 16:23:00,26.7,16.5,30.09,West,259,3.5,3.5,65,0.00,OVC,,0.00,47.0,WeatherDisplay:10.37,2013-02-03 22:23:00,
2013-02-03 16:28:00,26.6,16.4,30.09,WSW,247,3.5,3.5,65,0.00,OVC,,0.00,46.0,WeatherDisplay:10.37,2013-02-03 22:28:00,
2013-02-03 16:33:00,26.6,16.8,30.09,WSW,244,4.6,4.6,66,0.00,OVC,,0.00,42.0,WeatherDisplay:10.37,2013-02-03 22:33:00,
2013-02-03 16:38:00,26.9,16.3,30.10,West,265,4.6,4.6,64,0.00,SCT,,0.00,91.0,WeatherDisplay:10.37,2013-02-03 22:38:00,
2013-02-03 16:43:00,26.6,16.8,30.09,WSW,246,0.0,0.0,66,0.00,OVC,,0.00,26.0,WeatherDisplay:10.37,2013-02-03 22:43:00,
2013-02-03 16:48:00,26.9,16.3,30.10,West,265,4.6,4.6,64,0.00,FEW,,0.00,91.0,WeatherDisplay:10.37,2013-02-03 22:48:00,
2013-02-03 16:53:00,26.9,16.3,30.10,West,265,4.6,4.6,64,0.00,CLR,,0.00,91.0,WeatherDisplay:10.37,2013-02-03 22:53:00,
2013-02-03 16:58:00,26.6,17.1,30.08,WSW,240,3.5,3.5,67,0.00,OVC,,0.00,21.0,WeatherDisplay:10.37,2013-02-03 22:58:00,
2013-02-03 17:03:00,26.5,17.4,30.07,SW,219,5.0,5.0,68,0.00,OVC,,0.00,21.0,WeatherDisplay:10.37,2013-02-03 23:03:00,
2013-02-03 17:08:00,26.9,16.3,30.10,West,265,4.6,4.6,64,0.00,CLR,,0.00,91.0,WeatherDisplay:10.37,2013-02-03 23:08:00,
2013-02-03 17:13:00,26.9,16.3,30.10,West,265,4.6,4.6,64,0.00,CLR,,0.00,91.0,WeatherDisplay:10.37,2013-02-03 23:13:00,
2013-02-03 17:18:00,26.2,17.7,30.07,SSW,207,4.6,4.6,70,0.00,OVC,,0.00,0.0,WeatherDisplay:10.37,2013-02-03 23:18:00,
2013-02-03 17:23:00,26.1,17.6,30.07,WSW,246,4.6,4.6,70,0.00,OVC,,0.00,0.0,WeatherDisplay:10.37,2013-02-03 23:23:00,
2013-02-03 17:28:00,26.0,17.6,30.07,SW,233,3.5,3.5,70,0.00,OVC,,0.00,0.0,WeatherDisplay:10.37,2013-02-03 23:28:00,
2013-02-03 17:33:00,26.9,16.3,30.10,West,265,4.6,4.6,64,0.00,OVC,,0.00,91.0,WeatherDisplay:10.37,2013-02-03 23:33:00,
2013-02-03 17:38:00,25.9,17.8,30.07,SW,233,2.3,2.3,71,0.00,OVC,,0.00,0.0,WeatherDisplay:10.37,2013-02-03 23:38:00,
2013-02-03 17:43:00,25.8,17.7,30.08,SW,233,3.5,3.5,71,0.00,OVC,,0.00,0.0,WeatherDisplay:10.37,2013-02-03 23:43:00,
2013-02-03 17:48:00,25.8,17.7,30.08,SW,233,2.3,2.3,71,0.00,OVC,,0.00,0.0,WeatherDisplay:10.37,2013-02-03 23:48:00,
2013-02-03 17:53:00,25.6,17.5,30.08,SW,233,1.2,1.2,71,0.00,CLR,,0.00,0.0,WeatherDisplay:10.37,2013-02-03 23:53:00,
2013-02-03 17:58:00,25.5,17.4,30.08,SW,233,2.3,2.3,71,0.00,CLR,,0.00,0.0,WeatherDisplay:10.37,2013-02-03 23:58:00,
2013-02-03 18:03:00,25.4,17.3,30.09,SW,233,0.0,0.0,71,0.00,CLR,,0.00,0.0,WeatherDisplay:10.37,2013-02-04 00:03:00,
2013-02-03 18:08:00,25.8,17.7,30.08,SW,233,2.3,2.3,71,0.00,CLR,,0.00,0.0,WeatherDisplay:10.37,2013-02-04 00:08:00,
2013-02-03 18:13:00,25.8,17.7,30.08,SW,233,2.3,2.3,71,0.00,CLR,,0.00,0.0,WeatherDisplay:10.37,2013-02-04 00:13:00,
2013-02-03 18:18:00,25.1,17.3,30.09,SW,233,0.0,0.0,72,0.00,CLR,,0.00,0.0,WeatherDisplay:10.37,2013-02-04 00:18:00,
2013-02-03 18:23:00,25.8,17.7,30.08,SW,233,2.3,2.3,71,0.00,CLR,,0.00,0.0,WeatherDisplay:10.37,2013-02-04 00:23:00,
2013-02-03 18:28:00,25.0,17.6,30.09,SW,233,0.0,0.0,73,0.00,CLR,,0.00,0.0,WeatherDisplay:10.37,2013-02-04 00:28:00,
2013-02-03 18:33:00,24.9,17.5,30.08,SW,233,0.0,0.0,73,0.00,CLR,,0.00,0.0,WeatherDisplay:10.37,2013-02-04 00:33:00,
2013-02-03 18:38:00,24.8,17.4,30.08,SW,233,0.0,0.0,73,0.00,CLR,,0.00,0.0,WeatherDisplay:10.37,2013-02-04 00:38:00,
2013-02-03 18:43:00,25.8,17.7,30.08,SW,233,2.3,2.3,71,0.00,CLR,,0.00,0.0,WeatherDisplay:10.37,2013-02-04 00:43:00,
2013-02-03 18:48:00,24.7,17.3,30.08,SW,233,0.0,0.0,73,0.00,CLR,,0.00,0.0,WeatherDisplay:10.37,2013-02-04 00:48:00,
2013-02-03 18:53:00,25.8,17.7,30.08,SW,233,2.3,2.3,71,0.00,CLR,,0.00,0.0,WeatherDisplay:10.37,2013-02-04 00:53:00,
2013-02-03 18:58:00,24.4,17.3,30.08,SW,233,0.0,0.0,74,0.00,CLR,,0.00,0.0,WeatherDisplay:10.37,2013-02-04 00:58:00,
2013-02-03 19:03:00,24.3,17.2,30.08,SW,233,0.0,0.0,74,0.00,CLR,,0.00,0.0,WeatherDisplay:10.37,2013-02-04 01:03:00,
2013-02-03 19:08:00,24.1,17.3,30.08,SW,233,0.0,0.0,75,0.00,CLR,,0.00,0.0,WeatherDisplay:10.37,2013-02-04 01:08:00,
2013-02-03 19:13:00,24.4,17.3,30.08,SW,233,0.0,0.0,74,0.00,CLR,,0.00,0.0,WeatherDisplay:10.37,2013-02-04 01:13:00,
2013-02-03 19:18:00,23.9,17.1,30.08,SW,233,0.0,0.0,75,0.00,CLR,,0.00,0.0,WeatherDisplay:10.37,2013-02-04 01:18:00,
2013-02-03 19:23:00,23.8,17.3,30.08,SW,233,0.0,0.0,76,0.00,CLR,,0.00,0.0,WeatherDisplay:10.37,2013-02-04 01:23:00,
2013-02-03 19:28:00,24.4,17.3,30.08,SW,233,0.0,0.0,74,0.00,CLR,,0.00,0.0,WeatherDisplay:10.37,2013-02-04 01:28:00,
2013-02-03 19:33:00,23.6,17.1,30.08,SW,233,0.0,0.0,76,0.00,CLR,,0.00,0.0,WeatherDisplay:10.37,2013-02-04 01:33:00,
2013-02-03 19:38:00,23.5,17.0,30.08,SW,233,0.0,0.0,76,0.00,CLR,,0.00,0.0,WeatherDisplay:10.37,2013-02-04 01:38:00,
2013-02-03 19:43:00,23.4,16.9,30.08,SW,233,0.0,0.0,76,0.00,CLR,,0.00,0.0,WeatherDisplay:10.37,2013-02-04 01:43:00,
2013-02-03 19:48:00,23.4,17.3,30.08,SW,233,0.0,0.0,77,0.00,CLR,,0.00,0.0,WeatherDisplay:10.37,2013-02-04 01:48:00,
2013-02-03 19:53:00,23.3,17.2,30.08,SW,233,0.0,0.0,77,0.00,CLR,,0.00,0.0,WeatherDisplay:10.37,2013-02-04 01:53:00,
2013-02-03 19:58:00,23.2,17.1,30.09,SW,233,0.0,0.0,77,0.00,CLR,,0.00,0.0,WeatherDisplay:10.37,2013-02-04 01:58:00,
2013-02-03 20:03:00,23.1,17.3,30.08,SW,233,0.0,0.0,78,0.00,CLR,,0.00,0.0,WeatherDisplay:10.37,2013-02-04 02:03:00,
2013-02-03 20:08:00,23.3,17.2,30.08,SW,233,0.0,0.0,77,0.00,CLR,,0.00,0.0,WeatherDisplay:10.37,2013-02-04 02:08:00,
2013-02-03 20:13:00,23.0,17.2,30.08,SW,233,0.0,0.0,78,0.00,CLR,,0.00,0.0,WeatherDisplay:10.37,2013-02-04 02:13:00,
2013-02-03 20:18:00,23.3,17.2,30.08,SW,233,0.0,0.0,77,0.00,CLR,,0.00,0.0,WeatherDisplay:10.37,2013-02-04 02:18:00,
2013-02-03 20:23:00,23.0,17.5,30.08,SW,233,0.0,0.0,79,0.00,CLR,,0.00,0.0,WeatherDisplay:10.37,2013-02-04 02:23:00,
2013-02-03 20:28:00,23.3,17.2,30.08,SW,233,0.0,0.0,77,0.00,CLR,,0.00,0.0,WeatherDisplay:10.37,2013-02-04 02:28:00,
2013-02-03 20:33:00,23.2,17.9,30.08,SW,233,0.0,0.0,80,0.00,CLR,,0.00,0.0,WeatherDisplay:10.37,2013-02-04 02:33:00,
2013-02-03 20:38:00,23.2,17.9,30.08,SW,233,0.0,0.0,80,0.00,CLR,,0.00,0.0,WeatherDisplay:10.37,2013-02-04 02:38:00,
2013-02-03 20:43:00,23.3,17.2,30.08,SW,233,0.0,0.0,77,0.00,CLR,,0.00,0.0,WeatherDisplay:10.37,2013-02-04 02:43:00,
2013-02-03 20:48:00,23.4,18.4,30.08,SW,233,0.0,0.0,81,0.00,CLR,,0.00,0.0,WeatherDisplay:10.37,2013-02-04 02:48:00,
2013-02-03 20:53:00,23.4,18.4,30.08,SW,233,0.0,0.0,81,0.00,CLR,,0.00,0.0,WeatherDisplay:10.37,2013-02-04 02:53:00,
2013-02-03 20:58:00,23.3,17.2,30.08,SW,233,0.0,0.0,77,0.00,CLR,,0.00,0.0,WeatherDisplay:10.37,2013-02-04 02:58:00,
2013-02-03 21:03:00,23.3,17.2,30.08,SW,233,0.0,0.0,77,0.00,CLR,,0.00,0.0,WeatherDisplay:10.37,2013-02-04 03:03:00,
2013-02-03 21:08:00,23.4,18.4,30.08,SW,233,0.0,0.0,81,0.00,CLR,,0.00,0.0,WeatherDisplay:10.37,2013-02-04 03:08:00,
2013-02-03 21:13:00,23.3,18.3,30.08,SW,233,0.0,0.0,81,0.00,CLR,,0.00,0.0,WeatherDisplay:10.37,2013-02-04 03:13:00,
2013-02-03 21:18:00,23.3,17.2,30.08,SW,233,0.0,0.0,77,0.00,CLR,,0.00,0.0,WeatherDisplay:10.37,2013-02-04 03:18:00,
2013-02-03 21:23:00,23.3,17.2,30.08,SW,233,0.0,0.0,77,0.00,CLR,,0.00,0.0,WeatherDisplay:10.37,2013-02-04 03:23:00,
2013-02-03 21:28:00,22.9,17.9,30.07,SW,233,0.0,0.0,81,0.00,CLR,,0.00,0.0,WeatherDisplay:10.37,2013-02-04 03:28:00,
2013-02-03 21:33:00,22.8,17.8,30.06,SW,233,0.0,0.0,81,0.00,CLR,,0.00,0.0,WeatherDisplay:10.37,2013-02-04 03:33:00,
2013-02-03 21:38:00,23.3,17.2,30.08,SW,233,0.0,0.0,77,0.00,CLR,,0.00,0.0,WeatherDisplay:10.37,2013-02-04 03:38:00,
2013-02-03 21:43:00,23.3,17.2,30.08,SW,233,0.0,0.0,77,0.00,CLR,,0.00,0.0,WeatherDisplay:10.37,2013-02-04 03:43:00,
2013-02-03 21:48:00,22.4,17.7,30.06,SW,233,0.0,0.0,82,0.00,CLR,,0.00,0.0,WeatherDisplay:10.37,2013-02-04 03:48:00,
2013-02-03 21:53:00,22.3,17.6,30.06,SW,233,0.0,0.0,82,0.00,CLR,,0.00,0.0,WeatherDisplay:10.37,2013-02-04 03:53:00,
2013-02-03 21:58:00,22.2,17.5,30.06,SW,233,0.0,0.0,82,0.00,CLR,,0.00,0.0,WeatherDisplay:10.37,2013-02-04 03:58:00,
2013-02-03 22:03:00,23.3,17.2,30.08,SW,233,0.0,0.0,77,0.00,CLR,,0.00,0.0,WeatherDisplay:10.37,2013-02-04 04:03:00,
2013-02-03 22:08:00,22.1,17.7,30.05,SW,233,0.0,0.0,83,0.00,CLR,,0.00,0.0,WeatherDisplay:10.37,2013-02-04 04:08:00,
2013-02-03 22:13:00,23.3,17.2,30.08,SW,233,0.0,0.0,77,0.00,CLR,,0.00,0.0,WeatherDisplay:10.37,2013-02-04 04:13:00,
2013-02-03 22:19:00,21.8,17.4,30.04,SW,233,0.0,0.0,83,0.00,CLR,,0.00,0.0,WeatherDisplay:10.37,2013-02-04 04:19:00,
2013-02-03 22:24:00,21.7,17.3,30.04,SW,233,0.0,0.0,83,0.00,CLR,,0.00,0.0,WeatherDisplay:10.37,2013-02-04 04:24:00,
2013-02-03 22:29:00,23.3,17.2,30.08,SW,233,0.0,0.0,77,0.00,CLR,,0.00,0.0,WeatherDisplay:10.37,2013-02-04 04:29:00,
2013-02-03 22:34:00,23.3,17.2,30.08,SW,233,0.0,0.0,77,0.00,CLR,,0.00,0.0,WeatherDisplay:10.37,2013-02-04 04:34:00,
2013-02-03 22:39:00,21.6,17.5,30.03,SW,233,0.0,0.0,84,0.00,CLR,,0.00,0.0,WeatherDisplay:10.37,2013-02-04 04:39:00,
2013-02-03 22:44:00,21.6,17.5,30.03,SW,233,0.0,0.0,84,0.00,CLR,,0.00,0.0,WeatherDisplay:10.37,2013-02-04 04:44:00,
2013-02-03 22:49:00,21.6,17.5,30.02,SW,233,0.0,0.0,84,0.00,CLR,,0.00,0.0,WeatherDisplay:10.37,2013-02-04 04:49:00,
2013-02-03 22:54:00,21.7,17.6,30.02,SW,233,0.0,0.0,84,0.00,CLR,,0.00,0.0,WeatherDisplay:10.37,2013-02-04 04:54:00,
2013-02-03 22:59:00,21.7,17.6,30.01,SW,233,0.0,0.0,84,0.00,CLR,,0.00,0.0,WeatherDisplay:10.37,2013-02-04 04:59:00,
2013-02-03 23:00:00,23.3,17.2,30.08,SW,233,0.0,0.0,77,0.00,CLR,,0.00,0.0,WeatherDisplay:10.37,2013-02-04 05:00:00,
2013-02-03 23:01:00,21.8,17.7,30.01,SW,233,0.0,0.0,84,0.00,CLR,,0.00,0.0,WeatherDisplay:10.37,2013-02-04 05:01:00,
2013-02-03 23:06:00,21.9,17.8,30.01,SSW,197,0.0,0.0,84,0.00,CLR,,0.00,0.0,WeatherDisplay:10.37,2013-02-04 05:06:00,
2013-02-03 23:11:00,23.3,17.2,30.08,SW,233,0.0,0.0,77,0.00,CLR,,0.00,0.0,WeatherDisplay:10.37,2013-02-04 05:11:00,
2013-02-03 23:16:00,23.3,17.2,30.08,SW,233,0.0,0.0,77,0.00,CLR,,0.00,0.0,WeatherDisplay:10.37,2013-02-04 05:16:00,
2013-02-03 23:21:00,22.4,18.6,30.00,SSW,197,0.0,0.0,85,0.00,CLR,,0.00,0.0,WeatherDisplay:10.37,2013-02-04 05:21:00,
2013-02-03 23:26:00,22.6,18.8,30.00,SSW,196,0.0,0.0,85,0.00,CLR,,0.00,0.0,WeatherDisplay:10.37,2013-02-04 05:26:00,
2013-02-03 23:31:00,23.3,17.2,30.08,SW,233,0.0,0.0,77,0.00,CLR,,0.00,0.0,WeatherDisplay:10.37,2013-02-04 05:31:00,
2013-02-03 23:36:00,23.1,19.3,29.99,South,190,0.0,0.0,85,0.00,CLR,,0.00,0.0,WeatherDisplay:10.37,2013-02-04 05:36:00,
2013-02-03 23:41:00,23.3,17.2,30.08,SW,233,0.0,0.0,77,0.00,CLR,,0.00,0.0,WeatherDisplay:10.37,2013-02-04 05:41:00,
2013-02-03 23:46:00,23.3,17.2,30.08,SW,233,0.0,0.0,77,0.00,CLR,,0.00,0.0,WeatherDisplay:10.37,2013-02-04 05:46:00,
2013-02-03 23:51:00,24.1,20.0,29.98,SSE,147,4.0,4.0,84,0.00,CLR,,0.00,0.0,WeatherDisplay:10.37,2013-02-04 05:51:00,
2013-02-03 23:56:00,24.6,20.2,29.98,SE,145,0.0,0.3,83,0.00,CLR,,0.00,0.0,WeatherDisplay:10.37,2013-02-04 05:56:00,